EW4214 Weather Reports


Display with metric or nautical units.
time (UTC)temp
F
wind
direction
speed
MPH
gust
MPH
rain 1hr
in
rain 24hr
in
rain mn
in
humidity
%
barometer
mb
20260831160535 83 25 0.0 1.0 0.00 0.00 0.00 76 1009.7
20260831155031 84 240 0.0 2.0 0.00 0.00 0.00 76 1009.6
20260831154026 84 11 0.0 3.0 0.00 0.00 0.00 77 1009.6
20260831153025 84 44 0.0 5.0 0.00 0.00 0.00 77 1009.7
20260831152027 84 147 0.0 2.0 0.00 0.00 0.00 78 1009.7
20260831151028 84 32 0.0 2.0 0.00 0.00 0.00 77 1009.8
20260831150025 84 224 0.0 1.0 0.00 0.00 0.00 77 1009.8
20260831145019 84 176 0.0 2.0 0.00 0.00 0.00 77 1009.8
20260831144016 84 352 0.0 1.0 0.00 0.00 0.00 77 1009.6
20260831143513 84 230 0.0 2.0 0.00 0.00 0.00 77 1009.5
20260831142008 84 143 0.0 3.0 0.00 0.00 0.00 77 1009.5
20260831141006 84 110 0.0 1.0 0.00 0.00 0.00 77 1009.3
20260831140006 84 120 0.0 2.0 0.00 0.00 0.00 77 1009.0
20260831135006 84 0 0.0 3.0 0.00 0.00 0.00 77 1009.0
20260831134005 84 237 0.0 1.0 0.00 0.00 0.00 77 1008.8
20260831133005 84 62 0.0 4.0 0.00 0.00 0.00 77 1008.6
20260831132005 84 242 0.0 2.0 0.00 0.00 0.00 76 1008.5
20260831131005 85 234 0.0 2.0 0.00 0.00 0.00 77 1008.4
20260831130453 85 269 0.0 5.0 0.00 0.00 0.00 77 1008.3
20260831125003 85 249 3.0 5.0 0.00 0.00 0.00 77 1008.2
20260831124004 85 208 2.0 4.0 0.00 0.00 0.00 77 1008.0
20260831123004 85 250 0.0 5.0 0.00 0.00 0.00 78 1007.8
20260831122004 85 315 0.0 2.0 0.00 0.00 0.00 78 1007.4
20260831121004 85 44 0.0 2.0 0.00 0.00 0.00 78 1007.1
20260831120004 85 275 1.0 2.0 0.00 0.00 0.00 78 1006.9
20260831115917 85 102 0.0 2.0 0.00 0.00 0.00 77 1006.5
20260831114004 85 249 0.0 2.0 0.00 0.00 0.00 77 1006.4
20260831113006 85 247 2.0 4.0 0.00 0.00 0.00 77 1006.3
20260831112451 85 246 2.0 5.0 0.00 0.00 0.00 77 1006.4
20260831111004 85 220 2.0 3.0 0.00 0.00 0.00 77 1006.4
20260831110446 85 215 1.0 4.0 0.00 0.00 0.00 77 1006.5
20260831105448 85 233 0.0 4.0 0.00 0.00 0.00 77 1006.4
20260831104444 85 349 0.0 6.0 0.00 0.00 0.00 77 1006.2
20260831103004 85 204 2.0 4.0 0.00 0.00 0.00 78 1006.3
20260831102009 85 319 1.0 4.0 0.00 0.00 0.00 79 1006.2
20260831101002 86 233 2.0 3.0 0.00 0.00 0.00 79 1005.9
20260831100004 86 224 0.0 3.0 0.00 0.00 0.00 79 1005.8
20260831095006 86 32 0.0 2.0 0.00 0.00 0.00 79 1005.8
20260831094004 86 242 1.0 4.0 0.00 0.00 0.00 78 1005.9
20260831093005 86 269 0.0 3.0 0.00 0.00 0.00 77 1005.8
20260831092517 86 129 0.0 3.0 0.00 0.00 0.00 77 1005.6
20260831090938 86 261 1.0 4.0 0.00 0.00 0.00 76 1005.6
20260831090418 86 5 0.0 5.0 0.00 0.00 0.00 76 1005.6
20260831084938 86 255 2.0 4.0 0.00 0.00 0.00 76 1005.8
20260831083937 86 226 3.0 5.0 0.00 0.00 0.00 76 1005.9
20260831083414 86 220 2.0 5.0 0.00 0.00 0.00 76 1005.9
20260831081938 86 249 6.0 6.0 0.00 0.00 0.00 77 1006.1
20260831081417 86 154 0.0 3.0 0.00 0.00 0.00 77 1006.1
20260831075937 86 208 2.0 3.0 0.00 0.00 0.00 76 1006.3
20260831074937 86 241 2.0 4.0 0.00 0.00 0.00 76 1006.4
20260831073937 86 228 4.0 5.0 0.00 0.00 0.00 76 1006.5
20260831073857 86 240 1.0 6.0 0.00 0.00 0.00 75 1006.5
20260831071937 86 246 2.0 5.0 0.00 0.00 0.00 75 1006.5
20260831071417 86 324 2.0 5.0 0.00 0.00 0.00 74 1006.5
20260831065937 86 306 2.0 7.0 0.00 0.00 0.00 74 1006.5
20260831065420 86 232 2.0 6.0 0.00 0.00 0.00 74 1006.6
20260831064108 86 294 1.0 5.0 0.00 0.00 0.00 75 1006.6
20260831063111 86 295 2.0 6.0 0.00 0.00 0.00 75 1006.5
20260831062632 86 282 2.0 6.0 0.00 0.00 0.00 75 1006.7
20260831061102 86 250 3.0 7.0 0.00 0.00 0.00 75 1006.8
20260831060059 86 271 2.0 6.0 0.00 0.00 0.00 75 1007.0
20260831055057 86 278 4.0 7.0 0.00 0.00 0.00 74 1007.0
20260831054054 85 232 3.0 9.0 0.00 0.00 0.00 75 1007.4
20260831053052 85 228 0.0 6.0 0.00 0.00 0.00 76 1007.5
20260831052611 85 345 5.0 7.0 0.00 0.00 0.00 77 1007.6
20260831051045 85 281 1.0 5.0 0.00 0.00 0.00 77 1007.7
20260831050601 85 265 2.0 7.0 0.00 0.00 0.00 77 1007.9
20260831045044 85 221 2.0 5.0 0.00 0.00 0.00 77 1008.0
20260831044032 85 231 4.0 7.0 0.00 0.00 0.00 77 1008.0
20260831043028 84 244 3.0 5.0 0.00 0.00 0.00 78 1008.0
20260831042027 84 306 2.0 4.0 0.00 0.00 0.00 79 1008.1
20260831041537 84 294 2.0 4.0 0.00 0.00 0.00 80 1008.0
20260831040017 84 232 0.0 4.0 0.00 0.00 0.00 81 1008.1
20260831035011 84 238 2.0 6.0 0.00 0.00 0.00 81 1008.3
20260831034011 84 343 2.0 4.0 0.00 0.00 0.00 81 1008.3
20260831033006 84 233 4.0 5.0 0.00 0.00 0.00 80 1008.4
20260831032513 84 242 2.0 4.0 0.00 0.00 0.00 81 1008.4
20260831031001 84 292 1.0 4.0 0.00 0.00 0.00 82 1008.6
20260831025956 84 287 2.0 4.0 0.00 0.00 0.00 82 1008.6
20260831025501 84 255 2.0 4.0 0.00 0.00 0.00 83 1008.5
20260831023954 84 293 1.0 3.0 0.00 0.00 0.00 83 1008.5
20260831022951 84 261 2.0 5.0 0.00 0.00 0.00 84 1008.6
20260831021947 83 230 3.0 4.0 0.00 0.00 0.00 85 1008.4
20260831021449 83 214 0.0 2.0 0.00 0.00 0.00 85 1008.4
20260831015940 83 107 0.0 2.0 0.00 0.00 0.00 85 1008.3
20260831014935 83 218 0.0 1.0 0.00 0.00 0.00 85 1008.4
20260831013933 83 94 0.0 1.0 0.00 0.00 0.00 85 1008.4
20260831012928 83 154 0.0 2.0 0.00 0.00 0.00 85 1008.3
20260831011924 83 336 1.0 2.0 0.00 0.00 0.00 85 1008.2
20260831010920 83 80 0.0 1.0 0.00 0.00 0.00 85 1008.2
20260831005914 83 310 0.0 1.0 0.00 0.00 0.00 84 1008.1
20260831004912 83 89 0.0 1.0 0.00 0.00 0.00 84 1008.0
20260831003917 83 309 0.0 1.0 0.00 0.00 0.00 84 1007.9
20260831002913 83 130 0.0 0.0 0.00 0.00 0.00 84 1007.9
20260831001913 83 135 0.0 0.0 0.00 0.00 0.00 84 1007.6
20260831000910 83 284 0.0 1.0 0.00 0.00 0.00 83 1007.5
20260831000853 83 188 0.0 1.0 0.00 0.00 0.00 83 1007.2
20260830234911 83 224 0.0 0.0 0.00 0.00 0.00 83 1007.2
20260830233909 83 242 0.0 0.0 0.00 0.00 0.00 83 1007.3
20260830232910 83 284 0.0 0.0 0.00 0.00 0.00 83 1007.2
20260830231910 83 249 0.0 1.0 0.00 0.00 0.00 83 1007.2
20260830230909 83 269 0.0 1.0 0.00 0.00 0.00 82 1007.2
20260830225909 83 255 0.0 0.0 0.00 0.00 0.00 82 1007.1
20260830225345 83 224 0.0 1.0 0.00 0.00 0.00 82 1006.9
20260830223908 83 230 0.0 1.0 0.00 0.00 0.00 82 1007.0
20260830222908 83 308 0.0 0.0 0.00 0.00 0.00 82 1006.8
20260830221902 83 269 0.0 0.0 0.00 0.00 0.00 82 1006.7
20260830220907 83 53 0.0 1.0 0.00 0.00 0.00 82 1006.7
20260830215902 83 117 0.0 1.0 0.00 0.00 0.00 82 1006.6
20260830214907 83 297 0.0 1.0 0.00 0.00 0.00 82 1006.7
20260830213907 83 269 0.0 1.0 0.00 0.00 0.00 82 1006.7
20260830212907 83 129 0.0 1.0 0.00 0.00 0.00 82 1006.8
20260830211905 83 293 0.0 1.0 0.00 0.00 0.00 82 1006.8
20260830211352 83 218 0.0 1.0 0.00 0.00 0.00 81 1006.9
20260830210348 83 89 0.0 1.0 0.00 0.00 0.00 81 1006.9
20260830204904 83 156 0.0 1.0 0.00 0.00 0.00 81 1006.9
20260830203907 83 263 0.0 1.0 0.00 0.00 0.00 81 1006.8
20260830203853 83 124 0.0 1.0 0.00 0.00 0.00 81 1006.9
20260830201910 83 326 0.0 2.0 0.00 0.00 0.00 81 1007.0
20260830201344 84 89 0.0 1.0 0.00 0.00 0.00 81 1006.9
20260830195904 84 124 0.0 2.0 0.00 0.00 0.00 80 1006.9
20260830195344 84 135 0.0 0.0 0.00 0.00 0.00 80 1007.1
20260830193903 84 124 0.0 1.0 0.00 0.00 0.00 80 1007.1
20260830192903 84 126 0.0 1.0 0.00 0.00 0.00 80 1007.2
20260830191903 84 157 0.0 1.0 0.00 0.00 0.00 80 1007.2
20260830190903 84 235 0.0 1.0 0.00 0.00 0.00 80 1007.1
20260830185902 84 293 0.0 2.0 0.00 0.00 0.00 80 1007.1
20260830184903 84 301 0.0 1.0 0.00 0.00 0.00 80 1007.2
20260830183902 84 257 0.0 0.0 0.00 0.00 0.00 80 1007.1
20260830183344 84 44 0.0 1.0 0.00 0.00 0.00 80 1007.4
20260830181902 84 75 0.0 1.0 0.00 0.00 0.00 79 1007.5
20260830180903 84 224 0.0 1.0 0.00 0.00 0.00 79 1007.5
20260830180341 84 50 1.0 2.0 0.00 0.00 0.00 79 1007.7
20260830174902 84 44 0.0 1.0 0.00 0.00 0.00 79 1007.8
20260830173902 84 343 0.0 1.0 0.00 0.00 0.00 79 1007.9
20260830172904 84 180 0.0 1.0 0.00 0.00 0.00 79 1007.9
20260830171903 84 151 0.0 1.0 0.00 0.00 0.00 79 1007.9
20260830171344 84 76 1.0 1.0 0.00 0.00 0.00 79 1008.0
20260830165902 84 135 0.0 2.0 0.00 0.00 0.00 79 1008.1
20260830165602 84 233 0.0 1.0 0.00 0.00 0.00 79 1008.2
20260830164554 84 99 0.0 1.0 0.00 0.00 0.00 79 1008.2
20260830163031 84 236 0.0 0.0 0.00 0.00 0.00 79 1008.2
20260830162025 85 47 0.0 1.0 0.00 0.00 0.00 79 1008.2
20260830161028 85 103 0.0 1.0 0.00 0.00 0.00 79 1008.3